Flag for Germany Weather past 2 weeks in Germering, Bavaria, Germany

34 °F

Partly cloudy.

Feels Like: 31 °F
Forecast: 24 / 35 °F
Wind: 3 mph from West

Location: Oberpfaffenhofen

Current Time: Nov 26, 2015 at 5:40:17 PM

Latest Report: Nov 26, 2015 at 4:50 PM

Visibility: 4 mi

Pressure: 30.01 "Hg (28.06 "Hg at 538m altitude)

Humidity: 93%

Dew point: 32 °F

Location of GermeringLocation

Historic Weather in Germering — Graph


Germering temperature yesterday

Maximum temperature yesterday: 37 °F (at 10:50 AM)
Minimum temperature yesterday: 34 °F (at 6:50 AM)
Average temperature yesterday: 36 °F

Past Weeks' High & Low Weather Summary

High66 °F (Nov 16, 1:20 PM)100% (Nov 12, 6:50 AM)30.42 "Hg (Nov 12, 6:50 AM)
Low19 °F (Nov 24, 6:50 AM)43% (Nov 16, 1:20 PM)29.42 "Hg (Nov 21, 3:50 PM)
Average45 °F78%30.04 "Hg
* Reported Nov 11 4:20 PM — Nov 26 4:20 PM, Germering, Weather by CustomWeather, © 2015

Note: Actual official high and low records may vary slightly from our data, if they occured in-between our weather recording intervals... More about our weather records


Germering weather history for previous 24 hours

Time TempWeatherWind HumidityBarometerVisibility
4:20 PM
Thu, Nov 26
34 °FSprinkles. Mostly cloudy.5 mph100%30.01 "Hg2 mi
3:50 PM34 °FLight snow. Mostly cloudy.6 mph100%29.98 "Hg2 mi
3:20 PM34 °FFog.5 mph100%29.98 "Hg2 mi
2:50 PM34 °FPartly sunny.7 mph100%29.95 "Hg4 mi
2:20 PM36 °FPartly sunny.6 mph93%29.95 "Hg4 mi
1:50 PM36 °FPartly sunny.6 mph93%29.95 "Hg4 mi
1:20 PM34 °FLight rain. Low clouds.3 mph100%29.92 "Hg3 mi
12:50 PM36 °FLight rain. Low clouds.3 mph93%29.92 "Hg2 mi
12:20 PM34 °FLight rain. Low clouds.3 mph100%29.92 "Hg3 mi
11:50 AM32 °FLight snow. Low clouds.3 mph100%29.92 "Hg3 mi
11:20 AM32 °FLight snow. Ice fog.5 mph100%29.92 "Hg2 mi
10:50 AM36 °FFog.5 mph93%29.89 "Hg3 mi
10:20 AM36 °FFog.6 mph93%29.89 "Hg3 mi
9:50 AM34 °FFog.5 mph100%29.89 "Hg3 mi
9:20 AM34 °FFog.3 mph100%29.86 "Hg2 mi
8:50 AM34 °FFog.5 mph93%29.86 "Hg2 mi
8:20 AM34 °FFog.5 mph93%29.83 "Hg3 mi
7:50 AM34 °FFog.5 mph93%29.83 "Hg3 mi
7:20 AM34 °FLight snow. Fog.5 mph93%29.83 "Hg3 mi
6:50 AM32 °FLight snow. Ice fog.6 mph100%29.80 "Hg2 mi
8:20 PM
Wed, Nov 25
36 °FPassing clouds.7 mph93%29.74 "HgN/A
7:50 PM36 °FPassing clouds.6 mph93%29.74 "HgN/A
6:50 PM36 °FPassing clouds.7 mph93%29.71 "HgN/A
6:20 PM36 °FPassing clouds.6 mph93%29.71 "HgN/A
5:50 PM36 °FPassing clouds.5 mph93%29.71 "HgN/A
5:20 PM36 °FPassing clouds.5 mph93%29.71 "HgN/A
Weather by CustomWeather, © 2015

See weather overviewHow to use our weather pages